[[{"header":{"parameterUnit":"m.s-1","parameterCategory":1,"la1":30.2991,"la2":30.254,"lo1":-89.0895,"lo2":-89.0444,"dy":0.0017,"dx":0.0017,"nx":28,"ny":28,"refTime":"2026-02-07T03:00:00:Z","depth":0,"parameterNumber":2,"parameterNumberName":"U-component_of_WINDS"},"data":[0,0,0,0,0,0,0,0,0,0,0,0,0,0,0,0,0,0,0,0,0,0,0,0,0,0,0,0,0,0,0,0,0,0,0,0,0,0,0,0,0,0,0,0,0,0,0,0,0,0,0,0,0,0,0,0,0,0,-2.445,-2.445,0,-2.451,-2.451,-2.4511,-2.4463,-2.4461,-2.4459,-2.4457,-2.4524,-2.4528,-2.4531,0,0,0,0,0,0,0,0,0,0,0,0,0,-2.43,-2.4303,-2.445,-2.4451,-2.4451,-2.451,-2.451,-2.4511,-2.4464,-2.4461,-2.4459,-2.4456,-2.4523,-2.4527,-2.4532,0,0,0,0,0,0,0,0,0,0,0,0,0,-2.4363,-2.4304,-2.445,-2.4434,-2.4434,-2.4509,-2.4511,-2.4512,-2.4464,-2.4461,-2.4458,-2.4455,-2.4521,-2.4527,-2.4532,-2.4628,0,0,-2.4549,-2.4552,0,0,0,0,0,0,0,0,-2.4359,-2.4369,-2.4436,-2.4436,-2.4435,-2.4476,-2.4482,-2.4551,-2.4465,-2.4453,-2.4457,-2.4454,-2.4511,-2.4517,-2.4535,-2.4631,-2.4634,-2.455,-2.4553,-2.4555,-2.4557,0,0,0,0,0,0,0,-2.4355,-2.4366,-2.4474,-2.4437,-2.4436,-2.4426,-2.4432,-2.4495,-2.4499,-2.4454,-2.445,-2.4458,-2.451,-2.453,-2.4536,-2.4635,-2.455,-2.4554,-2.4558,-2.456,-2.4816,-2.4819,0,0,0,0,0,0,-2.4351,-2.4362,-2.4472,-2.4475,-2.4389,-2.4432,-2.4438,-2.4466,-2.4498,-2.4499,-2.446,-2.4455,-2.4522,-2.453,-2.4539,-2.4655,-2.4555,-2.4561,-2.4564,-2.4812,-2.4816,-2.482,0,0,0,0,0,0,-2.4348,-2.4362,-2.4469,-2.4418,-2.4431,-2.4437,-2.4469,-2.4469,-2.4488,-2.4503,-2.4504,-2.448,-2.452,-2.4531,-2.4606,-2.4657,-2.4563,-2.4568,-2.4808,-2.4813,-2.4818,-2.4888,0,0,0,0,0,0,-2.4344,-2.4361,-2.4396,-2.4419,-2.4434,-2.4535,-2.4472,-2.4472,-2.4498,-2.4492,-2.4521,-2.4523,-2.4518,-2.4598,-2.4612,-2.4663,-2.4572,-2.4804,-2.481,-2.4817,-2.4881,-2.4895,-2.4906,0,0,0,0,0,-2.4339,-2.4414,-2.4398,-2.4411,-2.4478,-2.4538,-2.4546,-2.4538,-2.4502,-2.4538,-2.4548,-2.4522,-2.4648,-2.4607,-2.4621,-2.4675,-2.4801,-2.4809,-2.4816,-2.4875,-2.4892,-2.4906,0,0,0,0,0,0,-2.4398,-2.4417,-2.4399,-2.4483,-2.4509,-2.4529,-2.4575,-2.4555,-2.4593,-2.4586,-2.4575,-2.4583,-2.4663,-2.4676,-2.4629,-2.477,-2.4719,-2.473,-2.4759,-2.4775,-2.4787,-2.4784,-2.4577,0,0,0,0,0,-2.4421,-2.4466,-2.448,-2.4553,-2.4567,-2.4569,-2.4595,-2.4586,-2.4613,-2.4624,-2.4639,-2.4667,-2.4714,-2.4745,-2.4788,-2.4882,-2.4889,-2.4926,-2.4939,-2.4949,-2.496,-2.5013,-2.503,-2.4846,-2.4846,-2.4845,0,0,-2.4468,-2.4484,-2.4514,-2.4565,-2.4584,-2.4634,-2.4578,-2.4633,-2.467,-2.4633,-2.4705,-2.4717,-2.4749,-2.4835,-2.4873,-2.4848,-2.5012,-2.4959,-2.4967,-2.4972,-2.5023,-2.504,-2.5056,-2.4851,-2.485,-2.4849,0,0,-2.4581,-2.4596,-2.4659,-2.4679,-2.4708,-2.4709,-2.4724,-2.4748,-2.4754,-2.4826,-2.48,-2.4845,-2.4924,-2.4948,-2.4971,-2.5093,-2.5073,-2.5108,-2.5175,-2.5227,-2.5242,-2.5255,-2.5301,-2.5318,-2.5118,-2.5118,-2.5118,0,-2.4637,-2.4709,-2.4695,-2.4752,-2.4777,-2.4743,-2.4809,-2.4829,-2.4872,-2.4891,-2.4861,-2.4961,-2.498,-2.5072,-2.5102,-2.512,-2.514,-2.5105,-2.524,-2.5253,-2.5265,-2.5309,-2.5327,-2.5122,-2.5122,-2.5121,-2.5121,0,-2.4778,-2.4828,-2.4876,-2.4917,-2.4947,-2.5008,-2.5005,-2.5037,-2.5026,-2.5031,-2.5106,-2.5127,-2.5175,-2.5195,-2.5185,-2.5287,-2.5271,-2.5241,-2.519,-2.5287,-2.5329,-2.5346,-2.5128,-2.5127,-2.5125,-2.5124,0,0,-2.4931,-2.4963,-2.4981,-2.5,-2.5029,-2.5069,-2.5129,-2.5174,-2.5204,-2.5234,-2.5286,-2.5354,-2.5327,-2.5353,-2.5345,-2.539,-2.5489,-2.5355,-2.5355,-2.5382,-2.5607,-2.5631,-2.5651,-2.5474,-2.5477,-2.548,-2.5605,0,-2.5048,-2.5151,-2.514,-2.5239,-2.5287,-2.5256,-2.5309,-2.5334,-2.534,-2.5383,-2.539,-2.544,-2.5398,-2.5414,-2.5457,-2.5468,-2.5535,-2.5458,-2.5526,-2.5529,-2.5522,-2.5672,-2.5698,-2.5815,-2.5621,-2.5624,-2.5626,0,-2.5197,-2.5232,-2.5335,-2.5359,-2.5378,-2.5426,-2.5467,-2.5508,-2.5536,-2.5538,-2.5567,-2.5551,-2.5615,-2.556,-2.5648,-2.5597,-2.5623,-2.5633,-2.5637,-2.5646,-2.5585,-2.5688,-2.5852,-2.5871,-2.5651,-2.5649,-2.5647,0,-2.5302,-2.5374,-2.5446,-2.5463,-2.5491,-2.5526,-2.554,-2.5565,-2.5593,-2.563,-2.5649,-2.5693,-2.5718,-2.5753,-2.5751,-2.5711,-2.5843,-2.5787,-2.5848,-2.5849,-2.588,-2.5878,-2.6054,-2.5892,-2.5892,-2.5891,-2.5891,0,-2.5435,-2.55,-2.5494,-2.5539,-2.5612,-2.5599,-2.5673,-2.5683,-2.5706,-2.5754,-2.5729,-2.5775,-2.5767,-2.5814,-2.5813,-2.5888,-2.5899,-2.5904,-2.5903,-2.5908,-2.5908,-2.5928,-2.5921,-2.5896,-2.5895,-2.5894,-2.5893,0,-2.5566,-2.5563,-2.564,-2.566,-2.5667,-2.5721,-2.5739,-2.5782,-2.5786,-2.5847,-2.586,-2.5867,-2.5921,-2.5921,-2.5982,-2.5982,-2.6075,-2.6063,-2.6065,-2.6064,-2.6127,-2.6122,-2.6323,-2.635,-2.6168,-2.617,-2.6171,0,-2.5652,-2.5701,-2.5726,-2.5756,-2.5772,-2.5819,-2.5848,-2.5838,-2.5869,-2.5906,-2.5946,-2.5997,-2.6037,-2.6125,-2.6137,-2.6184,-2.6176,-2.6243,-2.6183,-2.6187,-2.6181,-2.6179,-2.6186,-2.6256,-2.6258,-2.626,-2.6261,0,-2.5806,-2.5802,-2.5844,-2.5885,-2.592,-2.5952,-2.5983,-2.6009,-2.6002,-2.6039,-2.6093,-2.6124,-2.6187,-2.6239,-2.6285,-2.6302,-2.6282,-2.6279,-2.6297,-2.6303,-2.6304,-2.6308,-2.6101,-2.6276,-2.6274,-2.6273,-2.6272,-2.6272,-2.5919,-2.5963,-2.5987,-2.6035,-2.6056,-2.6085,-2.6127,-2.6135,-2.6179,-2.6229,-2.622,-2.6282,-2.6311,-2.637,-2.6391,-2.644,-2.6417,-2.6441,-2.6448,-2.6455,-2.6463,-2.6293,-2.6448,-2.6447,-2.6447,-2.6447,-2.6446,0,-2.6075,-2.6089,-2.6132,-2.6175,-2.6213,-2.6187,-2.622,-2.6254,-2.6308,-2.6335,-2.6375,-2.6438,-2.6489,-2.6504,-2.6554,-2.659,-2.6583,-2.6604,-2.6603,-2.6608,-2.6479,-2.6461,-2.661,-2.661,-2.661,-2.661,-2.661,-2.6609,-2.616,-2.6233,-2.6233,-2.6317,-2.6331,-2.6389,-2.641,-2.6438,-2.646,-2.6531,-2.6572,-2.6581,-2.6605,-2.6656,-2.6702,-2.6705,-2.6727,-2.6752,-2.6753,-2.6633,-2.6617,-2.6601,-2.6584,-2.6756,-2.6756,-2.6877,-2.6879,-2.6879]},{"header":{"parameterUnit":"m.s-1","parameterCategory":1,"la1":30.2991,"la2":30.254,"lo1":-89.0895,"lo2":-89.0444,"dy":0.0017,"dx":0.0017,"nx":28,"ny":28,"refTime":"2026-02-07T03:00:00:Z","depth":0,"parameterNumber":3,"parameterNumberName":"V-component_of_WINDS"},"data":[0,0,0,0,0,0,0,0,0,0,0,0,0,0,0,0,0,0,0,0,0,0,0,0,0,0,0,0,0,0,0,0,0,0,0,0,0,0,0,0,0,0,0,0,0,0,0,0,0,0,0,0,0,0,0,0,0,0,-3.502,-3.5021,0,-3.5084,-3.5085,-3.5086,-3.5063,-3.5062,-3.506,-3.5059,-3.5125,-3.5128,-3.5131,0,0,0,0,0,0,0,0,0,0,0,0,0,-3.4879,-3.4882,-3.502,-3.5021,-3.5022,-3.5084,-3.5085,-3.5086,-3.5063,-3.5062,-3.506,-3.5058,-3.5124,-3.5127,-3.5131,0,0,0,0,0,0,0,0,0,0,0,0,0,-3.4941,-3.4882,-3.502,-3.5018,-3.5019,-3.5084,-3.5085,-3.5086,-3.5064,-3.5062,-3.506,-3.5058,-3.5122,-3.5127,-3.5132,-3.5203,0,0,-3.5146,-3.5148,0,0,0,0,0,0,0,0,-3.4938,-3.4947,-3.5018,-3.5018,-3.5019,-3.5064,-3.5059,-3.5125,-3.5064,-3.5047,-3.5059,-3.5057,-3.5106,-3.5112,-3.5129,-3.5206,-3.5209,-3.5146,-3.5149,-3.5151,-3.5152,0,0,0,0,0,0,0,-3.4934,-3.4944,-3.5046,-3.5019,-3.502,-3.5014,-3.5021,-3.5072,-3.5088,-3.5048,-3.5047,-3.5054,-3.5106,-3.5124,-3.513,-3.521,-3.5146,-3.515,-3.5153,-3.5155,-3.535,-3.5352,0,0,0,0,0,0,-3.4929,-3.494,-3.5044,-3.5048,-3.4972,-3.5019,-3.5026,-3.5052,-3.5087,-3.509,-3.5056,-3.5053,-3.5117,-3.5125,-3.5132,-3.5219,-3.5151,-3.5155,-3.5158,-3.5347,-3.535,-3.5353,0,0,0,0,0,0,-3.4926,-3.4938,-3.5041,-3.4994,-3.5006,-3.5023,-3.5052,-3.5054,-3.5072,-3.5093,-3.5096,-3.5072,-3.5116,-3.5126,-3.5186,-3.5221,-3.5157,-3.5161,-3.5344,-3.5348,-3.5352,-3.5393,0,0,0,0,0,0,-3.4922,-3.4937,-3.4965,-3.4994,-3.5009,-3.5094,-3.5054,-3.5057,-3.508,-3.5077,-3.5109,-3.5112,-3.5115,-3.5179,-3.519,-3.5226,-3.5165,-3.5341,-3.5346,-3.535,-3.5388,-3.5397,-3.5405,0,0,0,0,0,-3.4917,-3.4973,-3.4966,-3.4979,-3.5043,-3.5096,-3.5104,-3.5106,-3.5083,-3.5111,-3.5124,-3.5111,-3.5215,-3.5185,-3.5198,-3.5236,-3.5339,-3.5345,-3.535,-3.5385,-3.5395,-3.5405,0,0,0,0,0,0,-3.4947,-3.4977,-3.4969,-3.5037,-3.5064,-3.5092,-3.5127,-3.5118,-3.5152,-3.5147,-3.5149,-3.5156,-3.5218,-3.5233,-3.5199,-3.5307,-3.5274,-3.5282,-3.5296,-3.5306,-3.5314,-3.531,-3.5169,0,0,0,0,0,-3.4962,-3.5002,-3.5026,-3.5083,-3.5097,-3.511,-3.5132,-3.5132,-3.516,-3.5171,-3.5189,-3.5217,-3.5256,-3.5282,-3.5319,-3.539,-3.5397,-3.5422,-3.543,-3.5437,-3.5445,-3.5485,-3.5496,-3.5371,-3.5371,-3.5371,0,0,-3.4992,-3.5013,-3.5038,-3.509,-3.511,-3.5152,-3.5119,-3.5164,-3.5195,-3.5178,-3.5236,-3.525,-3.5281,-3.5348,-3.5378,-3.5361,-3.5481,-3.5444,-3.5449,-3.5453,-3.5491,-3.5503,-3.5514,-3.5374,-3.5374,-3.5373,0,0,-3.5069,-3.5089,-3.5139,-3.5161,-3.5193,-3.5201,-3.5213,-3.5242,-3.5251,-3.5309,-3.5297,-3.5334,-3.5401,-3.5424,-3.5445,-3.5531,-3.552,-3.5543,-3.5587,-3.5626,-3.5636,-3.5644,-3.5676,-3.5688,-3.555,-3.555,-3.555,0,-3.5103,-3.5165,-3.5166,-3.5213,-3.5236,-3.5222,-3.5274,-3.5295,-3.5337,-3.5354,-3.5335,-3.5419,-3.5439,-3.5511,-3.5532,-3.5549,-3.5563,-3.554,-3.5634,-3.5643,-3.5651,-3.5682,-3.5693,-3.5553,-3.5552,-3.5552,-3.5552,0,-3.5206,-3.5249,-3.5286,-3.5328,-3.5355,-3.5404,-3.5413,-3.544,-3.5438,-3.5448,-3.5508,-3.5531,-3.5573,-3.559,-3.5587,-3.5662,-3.5651,-3.5633,-3.56,-3.5666,-3.5694,-3.5706,-3.5556,-3.5555,-3.5555,-3.5554,0,0,-3.5304,-3.5346,-3.536,-3.5379,-3.5413,-3.5447,-3.5495,-3.5536,-3.556,-3.559,-3.5631,-3.5688,-3.5672,-3.5696,-3.5696,-3.573,-3.5798,-3.5708,-3.5709,-3.5725,-3.5883,-3.5897,-3.591,-3.5791,-3.5793,-3.5795,-3.5881,0,-3.5384,-3.547,-3.5472,-3.555,-3.5591,-3.5579,-3.5621,-3.5647,-3.5657,-3.5694,-3.5705,-3.5746,-3.5722,-3.5736,-3.5769,-3.5783,-3.583,-3.5776,-3.583,-3.5832,-3.5824,-3.5925,-3.594,-3.602,-3.5892,-3.5894,-3.5895,0,-3.549,-3.5524,-3.5606,-3.5635,-3.5652,-3.569,-3.5729,-3.5763,-3.5793,-3.5798,-3.5824,-3.582,-3.587,-3.5834,-3.5903,-3.5867,-3.5889,-3.5899,-3.5902,-3.5908,-3.5868,-3.5935,-3.6046,-3.6058,-3.5912,-3.5911,-3.591,0,-3.5555,-3.562,-3.5678,-3.5695,-3.573,-3.5758,-3.5774,-3.5801,-3.5826,-3.5859,-3.5876,-3.5914,-3.5936,-3.5966,-3.5972,-3.5946,-3.6042,-3.6007,-3.6049,-3.6049,-3.6071,-3.607,-3.6188,-3.6083,-3.6083,-3.6083,-3.6082,0,-3.5645,-3.5696,-3.5708,-3.5744,-3.5801,-3.5804,-3.586,-3.5874,-3.5898,-3.5937,-3.5928,-3.5965,-3.597,-3.6008,-3.6013,-3.607,-3.6079,-3.6086,-3.6087,-3.6088,-3.6087,-3.6103,-3.6098,-3.6086,-3.6085,-3.6084,-3.6084,0,-3.5728,-3.5737,-3.58,-3.5829,-3.5837,-3.5878,-3.5903,-3.5937,-3.5947,-3.5996,-3.6007,-3.6023,-3.6067,-3.6076,-3.6128,-3.6132,-3.62,-3.6195,-3.6191,-3.6191,-3.6233,-3.6229,-3.6366,-3.6385,-3.6267,-3.6268,-3.6269,0,-3.5785,-3.5824,-3.5857,-3.5883,-3.59,-3.5941,-3.5966,-3.597,-3.5998,-3.6034,-3.6065,-3.6108,-3.6143,-3.6214,-3.623,-3.627,-3.6267,-3.6312,-3.6273,-3.6273,-3.6269,-3.6267,-3.6272,-3.632,-3.6321,-3.6322,-3.6323,0,-3.5887,-3.589,-3.5927,-3.5966,-3.5997,-3.6028,-3.6058,-3.6079,-3.6087,-3.6118,-3.6163,-3.619,-3.6244,-3.6287,-3.6328,-3.6344,-3.6336,-3.6335,-3.6347,-3.6349,-3.6345,-3.6349,-3.6213,-3.6332,-3.6331,-3.6331,-3.633,-3.633,-3.5959,-3.5994,-3.6023,-3.6065,-3.6088,-3.6116,-3.615,-3.6164,-3.6202,-3.6246,-3.6246,-3.6296,-3.6325,-3.6378,-3.6397,-3.6437,-3.6422,-3.644,-3.6444,-3.6449,-3.6453,-3.6338,-3.6444,-3.6443,-3.6443,-3.6443,-3.6443,0,-3.6061,-3.608,-3.6118,-3.616,-3.6193,-3.6182,-3.6214,-3.6243,-3.6287,-3.6315,-3.6349,-3.6402,-3.6444,-3.6464,-3.6506,-3.6533,-3.6531,-3.6544,-3.6543,-3.6547,-3.6463,-3.6449,-3.6546,-3.6546,-3.6546,-3.6546,-3.6546,-3.6546,-3.6119,-3.6177,-3.6184,-3.6254,-3.6271,-3.632,-3.634,-3.6366,-3.6388,-3.6447,-3.6482,-3.6495,-3.652,-3.6563,-3.6602,-3.6607,-3.6623,-3.6639,-3.6642,-3.6563,-3.6553,-3.6543,-3.653,-3.6642,-3.6642,-3.6723,-3.6724,-3.6725]}]]